Flag for U.S.A. Weather past 2 weeks in Narragansett, Rhode Island, U.S.A.

Now
36 °F

Passing clouds.


Feels Like: 36 °F
Forecast: 37 / 45 °F
Wind: No wind

Location: Newport State Airport

Current Time: Mar 31, 2015 at 2:05:54 AM

Latest Report: Mar 31, 2015 at 12:53 AM


Visibility: 10 mi

Pressure: 29.76 "Hg

Humidity: 73%

Dew point: 28 °F

Location of NarragansettLocation

Historic Weather in Narragansett — Graph

°F

Narragansett temperature yesterday

Maximum temperature yesterday: 43 °F (at 4:53 PM)
Minimum temperature yesterday: 32 °F (at 1:53 AM)
Average temperature yesterday: 37 °F

Past Weeks' High & Low Weather Summary

 TemperatureHumidityPressure
High52 °F (Mar 26, 10:53 PM)100% (Mar 17, 9:53 AM)30.42 "Hg (Mar 17, 9:53 AM)
Low18 °F (Mar 23, 5:53 AM)24% (Mar 19, 3:53 PM)29.41 "Hg (Mar 17, 3:53 PM)
Average33 °F65%29.99 "Hg
* Reported Mar 16 12:53 AM — Mar 31 12:53 AM, Narragansett, Weather by CustomWeather, © 2015

Note: Actual official high and low records may vary slightly from our data, if they occured in-between our weather recording intervals... More about our weather records

Advertising

Narragansett weather history for previous 24 hours

 ConditionsComfort  
Time TempWeatherWind HumidityBarometerVisibility
12:53 AM
Tue, Mar 31
36 °FPassing clouds.No wind73%29.76 "Hg10 mi
11:53 PM
Mon, Mar 30
37 °FClear.No wind76%29.76 "Hg10 mi
10:53 PM35 °FClear.No wind88%29.78 "Hg10 mi
9:53 PM36 °FClear.No wind85%29.78 "Hg10 mi
8:53 PM37 °FClear.5 mph86%29.78 "Hg10 mi
7:53 PM38 °FOvercast.7 mph83%29.75 "Hg10 mi
6:53 PM40 °FScattered clouds.7 mph77%29.74 "Hg10 mi
5:53 PM41 °FSunny.9 mph74%29.73 "Hg10 mi
4:53 PM43 °FPassing clouds.6 mph71%29.73 "Hg10 mi
3:53 PM39 °FOvercast.7 mph82%29.75 "Hg10 mi
2:53 PM38 °FMore clouds than sun.8 mph86%29.76 "Hg10 mi
1:53 PM38 °FOvercast.9 mph83%29.78 "Hg10 mi
12:53 PM40 °FOvercast.8 mph70%29.81 "Hg10 mi
11:53 AM39 °FMostly cloudy.15 mph73%29.85 "Hg10 mi
10:53 AM38 °FMostly cloudy.15 mph76%29.87 "Hg10 mi
9:53 AM38 °FOvercast.13 mph68%29.91 "Hg10 mi
8:53 AM37 °FMostly cloudy.13 mph73%29.93 "Hg10 mi
7:53 AM37 °FOvercast.12 mph67%29.95 "Hg10 mi
6:53 AM36 °FPassing clouds.12 mph70%29.97 "Hg10 mi
5:53 AM35 °FClear.12 mph75%30.00 "Hg10 mi
4:53 AM35 °FClear.9 mph75%30.01 "Hg10 mi
3:53 AM34 °FClear.6 mph79%30.04 "Hg10 mi
2:53 AM33 °FClear.6 mph75%30.06 "Hg10 mi
Weather by CustomWeather, © 2015

See weather overviewHow to use our weather pages